Time,TemperatureF,DewpointF,PressureIn,WindDirection,WindDirectionDegrees,WindSpeedMPH,WindSpeedGustMPH,Humidity,HourlyPrecipIn,Conditions,Clouds,dailyrainin,SoftwareType,DateUTC
2017-10-18 00:01:00,50.0,13.7,30.09,North,360,2.0,5.0,23,0.00,,---,0.00,VWS V15.00,2017-10-18 07:01:00,
2017-10-18 00:06:00,50.0,12.7,30.09,North,360,2.0,4.0,22,0.00,,---,0.00,VWS V15.00,2017-10-18 07:06:00,
2017-10-18 00:11:00,50.1,12.8,30.08,North,360,3.0,4.0,22,0.00,,---,0.00,VWS V15.00,2017-10-18 07:11:00,
2017-10-18 00:16:00,50.1,12.8,30.09,North,360,1.0,2.0,22,0.00,,---,0.00,VWS V15.00,2017-10-18 07:16:00,
2017-10-18 00:21:00,50.1,12.8,30.09,North,360,4.0,7.0,22,0.00,,---,0.00,VWS V15.00,2017-10-18 07:21:00,
2017-10-18 00:26:00,50.0,13.7,30.09,North,360,2.0,3.0,23,0.00,,---,0.00,VWS V15.00,2017-10-18 07:26:00,
2017-10-18 00:31:00,49.9,13.6,30.09,North,360,3.0,5.0,23,0.00,,---,0.00,VWS V15.00,2017-10-18 07:31:00,
2017-10-18 00:36:00,49.8,12.5,30.09,North,360,3.0,7.0,22,0.00,,---,0.00,VWS V15.00,2017-10-18 07:36:00,
2017-10-18 00:41:00,49.8,12.5,30.09,North,360,4.0,6.0,22,0.00,,---,0.00,VWS V15.00,2017-10-18 07:41:00,
2017-10-18 00:46:00,49.6,13.3,30.09,North,360,8.0,8.0,23,0.00,,---,0.00,VWS V15.00,2017-10-18 07:46:00,
2017-10-18 00:51:00,49.3,12.1,30.09,North,360,6.0,10.0,22,0.00,,---,0.00,VWS V15.00,2017-10-18 07:51:00,
2017-10-18 00:56:00,48.9,11.7,30.09,North,360,4.0,12.0,22,0.00,,---,0.00,VWS V15.00,2017-10-18 07:56:00,
2017-10-18 01:01:00,48.6,13.5,30.09,North,360,5.0,6.0,24,0.00,,---,0.00,VWS V15.00,2017-10-18 08:01:00,
2017-10-18 01:06:00,48.5,14.3,30.09,North,360,6.0,9.0,25,0.00,,---,0.00,VWS V15.00,2017-10-18 08:06:00,
2017-10-18 01:11:00,48.4,15.1,30.09,North,360,5.0,11.0,26,0.00,,---,0.00,VWS V15.00,2017-10-18 08:11:00,
2017-10-18 01:16:00,48.3,15.0,30.09,North,360,5.0,7.0,26,0.00,,---,0.00,VWS V15.00,2017-10-18 08:16:00,
2017-10-18 01:21:00,48.1,14.9,30.09,North,360,6.0,8.0,26,0.00,,---,0.00,VWS V15.00,2017-10-18 08:21:00,
2017-10-18 01:26:00,47.8,15.5,30.09,North,360,5.0,7.0,27,0.00,,---,0.00,VWS V15.00,2017-10-18 08:26:00,
2017-10-18 01:31:00,47.4,15.9,30.09,North,360,6.0,11.0,28,0.00,,---,0.00,VWS V15.00,2017-10-18 08:31:00,
2017-10-18 01:36:00,47.2,15.8,30.09,North,360,4.0,7.0,28,0.00,,---,0.00,VWS V15.00,2017-10-18 08:36:00,
2017-10-18 01:38:00,47.0,15.6,30.09,North,360,5.0,6.0,28,0.00,,---,0.00,VWS V15.00,2017-10-18 08:38:00,
2017-10-18 01:43:00,46.9,14.7,30.09,North,360,5.0,6.0,27,0.00,,---,0.00,VWS V15.00,2017-10-18 08:43:00,
2017-10-18 01:47:00,47.1,14.9,30.09,North,360,4.0,5.0,27,0.00,,---,0.00,VWS V15.00,2017-10-18 08:47:00,
2017-10-18 01:53:00,47.2,14.1,30.09,North,360,0.0,2.0,26,0.00,,---,0.00,VWS V15.00,2017-10-18 08:53:00,
2017-10-18 01:57:00,47.2,14.1,30.10,North,360,3.0,3.0,26,0.00,,---,0.00,VWS V15.00,2017-10-18 08:57:00,
2017-10-18 02:03:00,46.9,14.7,30.09,North,360,2.0,4.0,27,0.00,,---,0.00,VWS V15.00,2017-10-18 09:03:00,
2017-10-18 02:08:00,46.6,13.6,30.09,North,360,0.0,1.0,26,0.00,,---,0.00,VWS V15.00,2017-10-18 09:08:00,
2017-10-18 02:13:00,46.7,12.8,30.09,North,360,4.0,4.0,25,0.00,,---,0.00,VWS V15.00,2017-10-18 09:13:00,
2017-10-18 02:18:00,46.7,12.8,30.09,North,360,3.0,6.0,25,0.00,,---,0.00,VWS V15.00,2017-10-18 09:18:00,
2017-10-18 02:23:00,46.5,12.6,30.09,North,360,1.0,4.0,25,0.00,,---,0.00,VWS V15.00,2017-10-18 09:23:00,
2017-10-18 02:28:00,46.5,12.6,30.09,North,360,3.0,6.0,25,0.00,,---,0.00,VWS V15.00,2017-10-18 09:28:00,
2017-10-18 02:32:00,46.4,13.4,30.09,North,360,4.0,6.0,26,0.00,,---,0.00,VWS V15.00,2017-10-18 09:32:00,
2017-10-18 02:33:00,46.4,13.4,30.09,North,360,3.0,6.0,26,0.00,,---,0.00,VWS V15.00,2017-10-18 09:33:00,
2017-10-18 02:38:00,46.3,13.3,30.09,North,360,0.0,1.0,26,0.00,,---,0.00,VWS V15.00,2017-10-18 09:38:00,
2017-10-18 02:43:00,46.2,13.2,30.09,North,360,0.0,0.0,26,0.00,,---,0.00,VWS V15.00,2017-10-18 09:43:00,
2017-10-18 02:48:00,46.0,13.1,30.09,North,360,2.0,2.0,26,0.00,,---,0.00,VWS V15.00,2017-10-18 09:48:00,
2017-10-18 02:53:00,45.9,13.0,30.09,North,360,2.0,3.0,26,0.00,,---,0.00,VWS V15.00,2017-10-18 09:53:00,
2017-10-18 02:58:00,45.6,12.7,30.09,North,360,4.0,4.0,26,0.00,,---,0.00,VWS V15.00,2017-10-18 09:58:00,
2017-10-18 03:03:00,45.5,13.5,30.09,North,360,3.0,3.0,27,0.00,,---,0.00,VWS V15.00,2017-10-18 10:03:00,
2017-10-18 03:08:00,45.4,13.4,30.09,North,360,3.0,4.0,27,0.00,,---,0.00,VWS V15.00,2017-10-18 10:08:00,
2017-10-18 03:13:00,45.4,12.5,30.08,North,360,3.0,5.0,26,0.00,,---,0.00,VWS V15.00,2017-10-18 10:13:00,
2017-10-18 03:18:00,45.4,13.4,30.08,North,360,2.0,3.0,27,0.00,,---,0.00,VWS V15.00,2017-10-18 10:18:00,
2017-10-18 03:23:00,45.4,13.4,30.08,North,360,3.0,3.0,27,0.00,,---,0.00,VWS V15.00,2017-10-18 10:23:00,
2017-10-18 03:28:00,45.4,13.4,30.08,North,360,1.0,3.0,27,0.00,,---,0.00,VWS V15.00,2017-10-18 10:28:00,
2017-10-18 03:33:00,45.3,12.4,30.08,North,360,0.0,5.0,26,0.00,,---,0.00,VWS V15.00,2017-10-18 10:33:00,
2017-10-18 03:38:00,45.2,13.2,30.08,North,360,3.0,4.0,27,0.00,,---,0.00,VWS V15.00,2017-10-18 10:38:00,
2017-10-18 03:43:00,45.1,14.0,30.08,North,360,3.0,4.0,28,0.00,,---,0.00,VWS V15.00,2017-10-18 10:43:00,
2017-10-18 03:48:00,44.9,13.8,30.08,North,360,7.0,7.0,28,0.00,,---,0.00,VWS V15.00,2017-10-18 10:48:00,
2017-10-18 03:53:00,44.4,14.1,30.08,North,360,6.0,7.0,29,0.00,,---,0.00,VWS V15.00,2017-10-18 10:53:00,
2017-10-18 03:54:00,44.3,14.1,30.08,North,360,5.0,7.0,29,0.00,,---,0.00,VWS V15.00,2017-10-18 10:54:00,
2017-10-18 03:59:00,44.0,13.8,30.08,North,360,6.0,8.0,29,0.00,,---,0.00,VWS V15.00,2017-10-18 10:59:00,
2017-10-18 04:04:00,43.8,13.6,30.08,North,360,6.0,7.0,29,0.00,,---,0.00,VWS V15.00,2017-10-18 11:04:00,
2017-10-18 04:09:00,43.7,13.5,30.08,North,360,6.0,7.0,29,0.00,,---,0.00,VWS V15.00,2017-10-18 11:09:00,
2017-10-18 04:14:00,43.6,13.5,30.08,North,360,6.0,8.0,29,0.00,,---,0.00,VWS V15.00,2017-10-18 11:14:00,
2017-10-18 04:19:00,43.4,13.3,30.07,North,360,6.0,8.0,29,0.00,,---,0.00,VWS V15.00,2017-10-18 11:19:00,
2017-10-18 04:24:00,43.2,13.1,30.07,North,360,6.0,9.0,29,0.00,,---,0.00,VWS V15.00,2017-10-18 11:24:00,
2017-10-18 04:29:00,42.9,13.6,30.07,North,360,7.0,8.0,30,0.00,,---,0.00,VWS V15.00,2017-10-18 11:29:00,
2017-10-18 04:34:00,42.6,13.4,30.07,North,360,6.0,9.0,30,0.00,,---,0.00,VWS V15.00,2017-10-18 11:34:00,
2017-10-18 04:39:00,42.4,13.2,30.07,North,360,7.0,9.0,30,0.00,,---,0.00,VWS V15.00,2017-10-18 11:39:00,
2017-10-18 04:44:00,42.3,13.1,30.07,North,360,6.0,7.0,30,0.00,,---,0.00,VWS V15.00,2017-10-18 11:44:00,
2017-10-18 04:49:00,42.4,13.2,30.07,North,360,4.0,6.0,30,0.00,,---,0.00,VWS V15.00,2017-10-18 11:49:00,
2017-10-18 04:54:00,42.6,13.4,30.08,North,360,2.0,3.0,30,0.00,,---,0.00,VWS V15.00,2017-10-18 11:54:00,
2017-10-18 04:59:00,42.7,13.4,30.08,North,360,2.0,3.0,30,0.00,,---,0.00,VWS V15.00,2017-10-18 11:59:00,
2017-10-18 05:04:00,42.7,13.4,30.08,North,360,6.0,6.0,30,0.00,,---,0.00,VWS V15.00,2017-10-18 12:04:00,
2017-10-18 05:09:00,42.6,13.4,30.08,North,360,4.0,5.0,30,0.00,,---,0.00,VWS V15.00,2017-10-18 12:09:00,
2017-10-18 05:14:00,42.5,13.3,30.08,North,360,5.0,7.0,30,0.00,,---,0.00,VWS V15.00,2017-10-18 12:14:00,
2017-10-18 05:21:00,42.1,12.9,30.08,North,360,5.0,6.0,30,0.00,,---,0.00,VWS V15.00,2017-10-18 12:21:00,
2017-10-18 05:26:00,42.0,12.8,30.08,North,360,3.0,4.0,30,0.00,,---,0.00,VWS V15.00,2017-10-18 12:26:00,
2017-10-18 05:31:00,41.9,13.5,30.08,North,360,4.0,4.0,31,0.00,,---,0.00,VWS V15.00,2017-10-18 12:31:00,
2017-10-18 05:36:00,41.8,13.4,30.08,North,360,1.0,3.0,31,0.00,,---,0.00,VWS V15.00,2017-10-18 12:36:00,
2017-10-18 05:41:00,41.8,13.4,30.08,North,360,1.0,4.0,31,0.00,,---,0.00,VWS V15.00,2017-10-18 12:41:00,
2017-10-18 05:46:00,41.8,13.4,30.08,North,360,1.0,2.0,31,0.00,,---,0.00,VWS V15.00,2017-10-18 12:46:00,
2017-10-18 05:51:00,41.9,13.5,30.08,North,360,0.0,4.0,31,0.00,,---,0.00,VWS V15.00,2017-10-18 12:51:00,
2017-10-18 05:56:00,41.9,12.7,30.08,North,360,3.0,4.0,30,0.00,,---,0.00,VWS V15.00,2017-10-18 12:56:00,
2017-10-18 06:01:00,42.0,12.8,30.08,North,360,0.0,2.0,30,0.00,,---,0.00,VWS V15.00,2017-10-18 13:01:00,
2017-10-18 06:06:00,42.0,12.8,30.08,North,360,0.0,0.0,30,0.00,,---,0.00,VWS V15.00,2017-10-18 13:06:00,
2017-10-18 06:11:00,42.0,14.3,30.08,North,360,0.0,0.0,32,0.00,,---,0.00,VWS V15.00,2017-10-18 13:11:00,
2017-10-18 06:12:00,42.0,14.3,30.08,North,360,0.0,0.0,32,0.00,,---,0.00,VWS V15.00,2017-10-18 13:12:00,
2017-10-18 06:17:00,41.9,13.5,30.08,North,360,0.0,0.0,31,0.00,,---,0.00,VWS V15.00,2017-10-18 13:17:00,
2017-10-18 06:22:00,41.8,13.4,30.08,North,360,1.0,2.0,31,0.00,,---,0.00,VWS V15.00,2017-10-18 13:22:00,
2017-10-18 06:27:00,41.5,13.1,30.08,North,360,3.0,4.0,31,0.00,,---,0.00,VWS V15.00,2017-10-18 13:27:00,
2017-10-18 06:32:00,41.3,13.0,30.08,North,360,0.0,1.0,31,0.00,,---,0.00,VWS V15.00,2017-10-18 13:32:00,
2017-10-18 06:37:00,41.1,13.5,30.08,North,360,1.0,4.0,32,0.00,,---,0.00,VWS V15.00,2017-10-18 13:37:00,
2017-10-18 06:42:00,41.1,13.5,30.08,North,360,2.0,3.0,32,0.00,,---,0.00,VWS V15.00,2017-10-18 13:42:00,
2017-10-18 06:47:00,41.1,12.8,30.08,North,360,4.0,4.0,31,0.00,,---,0.00,VWS V15.00,2017-10-18 13:47:00,
2017-10-18 06:52:00,41.3,13.0,30.08,North,360,2.0,4.0,31,0.00,,---,0.00,VWS V15.00,2017-10-18 13:52:00,
2017-10-18 06:57:00,41.3,13.0,30.08,North,360,2.0,4.0,31,0.00,,---,0.00,VWS V15.00,2017-10-18 13:57:00,
2017-10-18 07:02:00,41.3,13.0,30.08,North,360,2.0,3.0,31,0.00,,---,0.00,VWS V15.00,2017-10-18 14:02:00,
2017-10-18 07:07:00,41.2,12.9,30.08,North,360,2.0,3.0,31,0.00,,---,0.00,VWS V15.00,2017-10-18 14:07:00,
2017-10-18 07:12:00,41.3,12.2,30.08,North,360,3.0,4.0,30,0.00,,---,0.00,VWS V15.00,2017-10-18 14:12:00,
2017-10-18 07:17:00,41.1,12.8,30.08,North,360,5.0,6.0,31,0.00,,---,0.00,VWS V15.00,2017-10-18 14:17:00,
2017-10-18 07:22:00,40.8,13.2,30.08,North,360,3.0,4.0,32,0.00,,---,0.00,VWS V15.00,2017-10-18 14:22:00,
2017-10-18 07:27:00,40.5,13.0,30.08,North,360,3.0,6.0,32,0.00,,---,0.00,VWS V15.00,2017-10-18 14:27:00,
2017-10-18 07:32:00,40.4,12.9,30.08,North,360,2.0,5.0,32,0.00,,---,0.00,VWS V15.00,2017-10-18 14:32:00,
2017-10-18 07:37:00,40.3,13.5,30.08,North,360,5.0,6.0,33,0.00,,---,0.00,VWS V15.00,2017-10-18 14:37:00,
2017-10-18 07:42:00,40.4,13.6,30.09,North,360,3.0,4.0,33,0.00,,---,0.00,VWS V15.00,2017-10-18 14:42:00,
2017-10-18 07:47:00,40.5,13.7,30.09,North,360,5.0,5.0,33,0.00,,---,0.00,VWS V15.00,2017-10-18 14:47:00,
2017-10-18 07:52:00,40.8,13.2,30.09,North,360,3.0,4.0,32,0.00,,---,0.00,VWS V15.00,2017-10-18 14:52:00,
2017-10-18 07:57:00,41.2,13.6,30.09,North,360,2.0,4.0,32,0.00,,---,0.00,VWS V15.00,2017-10-18 14:57:00,
2017-10-18 08:02:00,41.6,13.9,30.09,North,360,4.0,5.0,32,0.00,,---,0.00,VWS V15.00,2017-10-18 15:02:00,
2017-10-18 08:07:00,42.1,13.7,30.09,North,360,7.0,7.0,31,0.00,,---,0.00,VWS V15.00,2017-10-18 15:07:00,
2017-10-18 08:12:00,42.5,14.7,30.09,North,360,5.0,7.0,32,0.00,,---,0.00,VWS V15.00,2017-10-18 15:12:00,
2017-10-18 08:17:00,43.1,14.5,30.09,North,360,3.0,5.0,31,0.00,,---,0.00,VWS V15.00,2017-10-18 15:17:00,
2017-10-18 08:22:00,43.6,15.0,30.09,North,360,3.0,5.0,31,0.00,,---,0.00,VWS V15.00,2017-10-18 15:22:00,
2017-10-18 08:27:00,44.3,15.6,30.09,North,360,1.0,3.0,31,0.00,,---,0.00,VWS V15.00,2017-10-18 15:27:00,
2017-10-18 08:32:00,45.1,15.5,30.09,North,360,1.0,2.0,30,0.00,,---,0.00,VWS V15.00,2017-10-18 15:32:00,
2017-10-18 08:37:00,46.0,16.3,30.09,North,360,1.0,2.0,30,0.00,,---,0.00,VWS V15.00,2017-10-18 15:37:00,
2017-10-18 08:42:00,46.9,16.3,30.10,North,360,0.0,1.0,29,0.00,,---,0.00,VWS V15.00,2017-10-18 15:42:00,
2017-10-18 08:47:00,48.2,14.9,30.10,North,360,1.0,1.0,26,0.00,,---,0.00,VWS V15.00,2017-10-18 15:47:00,
2017-10-18 08:52:00,49.8,16.3,30.10,North,360,1.0,3.0,26,0.00,,---,0.00,VWS V15.00,2017-10-18 15:52:00,
2017-10-18 08:57:00,50.6,16.1,30.10,North,360,1.0,2.0,25,0.00,,---,0.00,VWS V15.00,2017-10-18 15:57:00,
2017-10-18 09:02:00,51.3,16.7,30.10,North,360,0.0,1.0,25,0.00,,---,0.00,VWS V15.00,2017-10-18 16:02:00,
2017-10-18 09:07:00,51.8,17.1,30.10,North,360,1.0,2.0,25,0.00,,---,0.00,VWS V15.00,2017-10-18 16:07:00,
2017-10-18 09:12:00,52.4,17.6,30.10,North,360,0.0,2.0,25,0.00,,---,0.00,VWS V15.00,2017-10-18 16:12:00,
2017-10-18 09:17:00,53.0,18.1,30.10,North,360,2.0,2.0,25,0.00,,---,0.00,VWS V15.00,2017-10-18 16:17:00,
2017-10-18 09:22:00,53.4,17.5,30.10,North,360,1.0,2.0,24,0.00,,---,0.00,VWS V15.00,2017-10-18 16:22:00,
2017-10-18 09:27:00,53.6,17.7,30.10,North,360,1.0,4.0,24,0.00,,---,0.00,VWS V15.00,2017-10-18 16:27:00,
2017-10-18 09:32:00,54.0,18.0,30.10,North,360,0.0,2.0,24,0.00,,---,0.00,VWS V15.00,2017-10-18 16:32:00,
2017-10-18 09:37:00,54.5,17.5,30.10,North,360,0.0,3.0,23,0.00,,---,0.00,VWS V15.00,2017-10-18 16:37:00,
2017-10-18 09:42:00,54.9,17.8,30.09,North,360,2.0,3.0,23,0.00,,---,0.00,VWS V15.00,2017-10-18 16:42:00,
2017-10-18 09:47:00,55.3,17.1,30.09,North,360,0.0,1.0,22,0.00,,---,0.00,VWS V15.00,2017-10-18 16:47:00,
2017-10-18 09:52:00,56.2,17.9,30.09,North,360,3.0,3.0,22,0.00,,---,0.00,VWS V15.00,2017-10-18 16:52:00,
2017-10-18 09:57:00,56.9,17.4,30.09,North,360,2.0,3.0,21,0.00,,---,0.00,VWS V15.00,2017-10-18 16:57:00,
2017-10-18 10:02:00,57.0,17.5,30.09,North,360,2.0,3.0,21,0.00,,---,0.00,VWS V15.00,2017-10-18 17:02:00,
2017-10-18 10:07:00,56.7,17.2,30.09,North,360,3.0,4.0,21,0.00,,---,0.00,VWS V15.00,2017-10-18 17:07:00,
2017-10-18 10:12:00,56.9,17.4,30.09,North,360,0.0,3.0,21,0.00,,---,0.00,VWS V15.00,2017-10-18 17:12:00,
2017-10-18 10:17:00,57.1,18.6,30.09,North,360,3.0,4.0,22,0.00,,---,0.00,VWS V15.00,2017-10-18 17:17:00,
2017-10-18 10:22:00,57.9,19.3,30.09,North,360,2.0,3.0,22,0.00,,---,0.00,VWS V15.00,2017-10-18 17:22:00,
2017-10-18 10:27:00,58.6,19.9,30.09,North,360,2.0,3.0,22,0.00,,---,0.00,VWS V15.00,2017-10-18 17:27:00,
2017-10-18 10:32:00,59.3,19.4,30.08,North,360,0.0,3.0,21,0.00,,---,0.00,VWS V15.00,2017-10-18 17:32:00,
2017-10-18 10:37:00,60.3,20.2,30.08,North,360,1.0,4.0,21,0.00,,---,0.00,VWS V15.00,2017-10-18 17:37:00,
2017-10-18 10:42:00,61.4,21.1,30.08,North,360,3.0,3.0,21,0.00,,---,0.00,VWS V15.00,2017-10-18 17:42:00,
2017-10-18 10:43:00,61.7,21.4,30.08,North,360,3.0,3.0,21,0.00,,---,0.00,VWS V15.00,2017-10-18 17:43:00,
2017-10-18 10:48:00,62.5,19.7,30.08,North,360,0.0,2.0,19,0.00,,---,0.00,VWS V15.00,2017-10-18 17:48:00,
2017-10-18 10:53:00,62.6,18.5,30.08,North,360,1.0,2.0,18,0.00,,---,0.00,VWS V15.00,2017-10-18 17:53:00,
2017-10-18 10:58:00,62.7,18.6,30.07,North,360,1.0,2.0,18,0.00,,---,0.00,VWS V15.00,2017-10-18 17:58:00,
2017-10-18 11:03:00,62.7,17.3,30.07,North,360,1.0,2.0,17,0.00,,---,0.00,VWS V15.00,2017-10-18 18:03:00,
2017-10-18 11:08:00,63.2,19.0,30.07,North,360,2.0,3.0,18,0.00,,---,0.00,VWS V15.00,2017-10-18 18:08:00,
2017-10-18 11:13:00,64.1,19.8,30.07,North,360,3.0,3.0,18,0.00,,---,0.00,VWS V15.00,2017-10-18 18:13:00,
2017-10-18 11:18:00,65.1,19.2,30.07,North,360,4.0,4.0,17,0.00,,---,0.00,VWS V15.00,2017-10-18 18:18:00,
2017-10-18 11:23:00,65.6,19.6,30.07,North,360,1.0,4.0,17,0.00,,---,0.00,VWS V15.00,2017-10-18 18:23:00,
2017-10-18 11:28:00,66.5,19.0,30.07,North,360,1.0,2.0,16,0.00,,---,0.00,VWS V15.00,2017-10-18 18:28:00,
2017-10-18 11:33:00,67.2,20.9,30.07,North,360,2.0,3.0,17,0.00,,---,0.00,VWS V15.00,2017-10-18 18:33:00,
2017-10-18 11:38:00,67.6,18.3,30.07,North,360,1.0,4.0,15,0.00,,---,0.00,VWS V15.00,2017-10-18 18:38:00,
2017-10-18 11:43:00,67.5,18.3,30.06,North,360,2.0,4.0,15,0.00,,---,0.00,VWS V15.00,2017-10-18 18:43:00,
2017-10-18 11:48:00,68.1,18.7,30.06,North,360,2.0,3.0,15,0.00,,---,0.00,VWS V15.00,2017-10-18 18:48:00,
2017-10-18 11:53:00,68.4,17.4,30.06,North,360,4.0,4.0,14,0.00,,---,0.00,VWS V15.00,2017-10-18 18:53:00,
2017-10-18 11:58:00,68.8,16.0,30.06,North,360,0.0,5.0,13,0.00,,---,0.00,VWS V15.00,2017-10-18 18:58:00,
2017-10-18 12:03:00,69.0,16.1,30.06,North,360,3.0,3.0,13,0.00,,---,0.00,VWS V15.00,2017-10-18 19:03:00,
2017-10-18 12:08:00,68.4,17.4,30.05,North,360,2.0,3.0,14,0.00,,---,0.00,VWS V15.00,2017-10-18 19:08:00,
2017-10-18 12:13:00,68.8,17.7,30.05,North,360,0.0,4.0,14,0.00,,---,0.00,VWS V15.00,2017-10-18 19:13:00,
2017-10-18 12:18:00,69.3,18.1,30.05,North,360,4.0,4.0,14,0.00,,---,0.00,VWS V15.00,2017-10-18 19:18:00,
2017-10-18 12:23:00,69.8,18.5,30.05,North,360,3.0,4.0,14,0.00,,---,0.00,VWS V15.00,2017-10-18 19:23:00,
2017-10-18 12:28:00,70.6,17.4,30.04,North,360,4.0,4.0,13,0.00,,---,0.00,VWS V15.00,2017-10-18 19:28:00,
2017-10-18 12:33:00,71.2,17.9,30.04,North,360,0.0,4.0,13,0.00,,---,0.00,VWS V15.00,2017-10-18 19:33:00,
2017-10-18 12:38:00,71.4,19.8,30.04,North,360,1.0,5.0,14,0.00,,---,0.00,VWS V15.00,2017-10-18 19:38:00,
2017-10-18 12:43:00,71.8,18.4,30.04,North,360,0.0,4.0,13,0.00,,---,0.00,VWS V15.00,2017-10-18 19:43:00,
2017-10-18 12:48:00,72.0,20.2,30.03,North,360,1.0,3.0,14,0.00,,---,0.00,VWS V15.00,2017-10-18 19:48:00,
2017-10-18 12:53:00,72.0,20.2,30.03,North,360,1.0,4.0,14,0.00,,---,0.00,VWS V15.00,2017-10-18 19:53:00,
2017-10-18 13:03:00,71.9,20.2,30.02,North,360,1.0,4.0,14,0.00,,---,0.00,VWS V15.00,2017-10-18 20:03:00,
2017-10-18 13:04:00,71.9,21.8,30.02,North,360,3.0,4.0,15,0.00,,---,0.00,VWS V15.00,2017-10-18 20:04:00,
2017-10-18 13:09:00,72.4,22.2,30.02,North,360,2.0,4.0,15,0.00,,---,0.00,VWS V15.00,2017-10-18 20:09:00,
2017-10-18 13:14:00,72.1,21.9,30.02,North,360,2.0,5.0,15,0.00,,---,0.00,VWS V15.00,2017-10-18 20:14:00,
2017-10-18 13:19:00,72.0,23.4,30.01,North,360,4.0,5.0,16,0.00,,---,0.00,VWS V15.00,2017-10-18 20:19:00,
2017-10-18 13:24:00,72.4,22.2,30.01,North,360,5.0,6.0,15,0.00,,---,0.00,VWS V15.00,2017-10-18 20:24:00,
2017-10-18 13:29:00,73.0,22.7,30.01,North,360,4.0,7.0,15,0.00,,---,0.00,VWS V15.00,2017-10-18 20:29:00,
2017-10-18 13:34:00,73.5,23.1,30.00,North,360,0.0,5.0,15,0.00,,---,0.00,VWS V15.00,2017-10-18 20:34:00,
2017-10-18 13:40:00,73.4,23.0,30.00,North,360,3.0,7.0,15,0.00,,---,0.00,VWS V15.00,2017-10-18 20:40:00,
2017-10-18 13:45:00,73.6,23.1,29.99,North,360,5.0,7.0,15,0.00,,---,0.00,VWS V15.00,2017-10-18 20:45:00,
2017-10-18 13:50:00,74.7,22.4,29.99,North,360,2.0,5.0,14,0.00,,---,0.00,VWS V15.00,2017-10-18 20:50:00,
2017-10-18 14:01:00,75.6,21.3,29.98,North,360,3.0,5.0,13,0.00,,---,0.00,VWS V15.00,2017-10-18 21:01:00,
2017-10-18 14:06:00,75.7,21.4,29.98,North,360,3.0,7.0,13,0.00,,---,0.00,VWS V15.00,2017-10-18 21:06:00,
2017-10-18 14:11:00,75.7,21.4,29.98,North,360,2.0,7.0,13,0.00,,---,0.00,VWS V15.00,2017-10-18 21:11:00,
2017-10-18 14:19:00,75.6,21.3,29.97,North,360,3.0,5.0,13,0.00,,---,0.00,VWS V15.00,2017-10-18 21:19:00,
2017-10-18 14:24:00,75.9,19.7,29.97,North,360,3.0,7.0,12,0.00,,---,0.00,VWS V15.00,2017-10-18 21:24:00,
2017-10-18 14:29:00,75.7,19.5,29.97,North,360,5.0,5.0,12,0.00,,---,0.00,VWS V15.00,2017-10-18 21:29:00,
2017-10-18 14:34:00,75.5,17.4,29.97,North,360,5.0,6.0,11,0.00,,---,0.00,VWS V15.00,2017-10-18 21:34:00,
2017-10-18 14:39:00,75.6,17.4,29.97,North,360,3.0,8.0,11,0.00,,---,0.00,VWS V15.00,2017-10-18 21:39:00,
2017-10-18 14:44:00,75.7,17.5,29.96,North,360,2.0,6.0,11,0.00,,---,0.00,VWS V15.00,2017-10-18 21:44:00,
2017-10-18 14:49:00,75.8,19.6,29.96,North,360,1.0,5.0,12,0.00,,---,0.00,VWS V15.00,2017-10-18 21:49:00,
2017-10-18 14:54:00,76.3,18.0,29.96,North,360,5.0,5.0,11,0.00,,---,0.00,VWS V15.00,2017-10-18 21:54:00,
2017-10-18 14:59:00,76.0,15.6,29.96,North,360,4.0,6.0,10,0.00,,---,0.00,VWS V15.00,2017-10-18 21:59:00,
2017-10-18 15:04:00,75.3,17.2,29.96,North,360,0.0,7.0,11,0.00,,---,0.00,VWS V15.00,2017-10-18 22:04:00,
2017-10-18 15:09:00,74.8,18.8,29.95,North,360,4.0,5.0,12,0.00,,---,0.00,VWS V15.00,2017-10-18 22:09:00,
2017-10-18 15:14:00,75.3,17.2,29.95,North,360,3.0,6.0,11,0.00,,---,0.00,VWS V15.00,2017-10-18 22:14:00,
2017-10-18 15:19:00,75.8,17.6,29.95,North,360,4.0,7.0,11,0.00,,---,0.00,VWS V15.00,2017-10-18 22:19:00,
2017-10-18 15:24:00,76.1,17.8,29.95,North,360,2.0,6.0,11,0.00,,---,0.00,VWS V15.00,2017-10-18 22:24:00,
2017-10-18 15:29:00,75.8,17.6,29.95,North,360,2.0,9.0,11,0.00,,---,0.00,VWS V15.00,2017-10-18 22:29:00,
2017-10-18 15:34:00,75.6,17.4,29.95,North,360,6.0,8.0,11,0.00,,---,0.00,VWS V15.00,2017-10-18 22:34:00,
2017-10-18 15:39:00,75.5,17.4,29.95,North,360,3.0,7.0,11,0.00,,---,0.00,VWS V15.00,2017-10-18 22:39:00,
2017-10-18 15:44:00,75.2,19.1,29.95,North,360,3.0,5.0,12,0.00,,---,0.00,VWS V15.00,2017-10-18 22:44:00,
2017-10-18 15:49:00,74.6,18.7,29.94,North,360,2.0,4.0,12,0.00,,---,0.00,VWS V15.00,2017-10-18 22:49:00,
2017-10-18 15:54:00,74.6,18.7,29.94,North,360,4.0,6.0,12,0.00,,---,0.00,VWS V15.00,2017-10-18 22:54:00,
2017-10-18 15:59:00,74.6,18.7,29.94,North,360,1.0,4.0,12,0.00,,---,0.00,VWS V15.00,2017-10-18 22:59:00,
2017-10-18 16:04:00,74.3,18.5,29.94,North,360,0.0,0.0,12,0.00,,---,0.00,VWS V15.00,2017-10-18 23:04:00,
2017-10-18 16:09:00,74.2,18.4,29.94,North,360,4.0,5.0,12,0.00,,---,0.00,VWS V15.00,2017-10-18 23:09:00,
2017-10-18 16:14:00,74.1,18.3,29.94,North,360,0.0,2.0,12,0.00,,---,0.00,VWS V15.00,2017-10-18 23:14:00,
2017-10-18 16:19:00,73.9,18.1,29.94,North,360,0.0,0.0,12,0.00,,---,0.00,VWS V15.00,2017-10-18 23:19:00,
2017-10-18 16:29:00,73.8,18.1,29.94,North,360,0.0,1.0,12,0.00,,---,0.00,VWS V15.00,2017-10-18 23:29:00,
2017-10-18 16:34:00,73.6,17.9,29.94,North,360,0.0,0.0,12,0.00,,---,0.00,VWS V15.00,2017-10-18 23:34:00,
2017-10-18 16:39:00,73.5,17.8,29.94,North,360,0.0,1.0,12,0.00,,---,0.00,VWS V15.00,2017-10-18 23:39:00,
2017-10-18 16:44:00,73.3,17.7,29.93,North,360,0.0,1.0,12,0.00,,---,0.00,VWS V15.00,2017-10-18 23:44:00,
2017-10-18 16:49:00,73.2,17.6,29.93,North,360,0.0,0.0,12,0.00,,---,0.00,VWS V15.00,2017-10-18 23:49:00,
2017-10-18 16:54:00,73.0,19.3,29.93,North,360,1.0,2.0,13,0.00,,---,0.00,VWS V15.00,2017-10-18 23:54:00,
2017-10-18 16:59:00,72.8,17.3,29.93,North,360,0.0,1.0,12,0.00,,---,0.00,VWS V15.00,2017-10-18 23:59:00,
2017-10-18 17:04:00,72.6,17.1,29.93,North,360,0.0,4.0,12,0.00,,---,0.00,VWS V15.00,2017-10-19 00:04:00,
2017-10-18 17:09:00,72.4,17.0,29.93,North,360,0.0,1.0,12,0.00,,---,0.00,VWS V15.00,2017-10-19 00:09:00,
2017-10-18 17:14:00,72.2,18.7,29.93,North,360,1.0,2.0,13,0.00,,---,0.00,VWS V15.00,2017-10-19 00:14:00,
2017-10-18 17:19:00,71.9,16.6,29.92,North,360,0.0,3.0,12,0.00,,---,0.00,VWS V15.00,2017-10-19 00:19:00,
2017-10-18 17:24:00,71.7,18.3,29.92,North,360,0.0,4.0,13,0.00,,---,0.00,VWS V15.00,2017-10-19 00:24:00,
2017-10-18 17:29:00,71.5,16.3,29.93,North,360,0.0,0.0,12,0.00,,---,0.00,VWS V15.00,2017-10-19 00:29:00,
2017-10-18 17:34:00,71.3,18.0,29.92,North,360,0.0,1.0,13,0.00,,---,0.00,VWS V15.00,2017-10-19 00:34:00,
2017-10-18 17:39:00,71.0,17.7,29.93,North,360,0.0,0.0,13,0.00,,---,0.00,VWS V15.00,2017-10-19 00:39:00,
2017-10-18 17:44:00,70.7,17.5,29.92,North,360,0.0,1.0,13,0.00,,---,0.00,VWS V15.00,2017-10-19 00:44:00,
2017-10-18 17:49:00,70.4,17.2,29.92,North,360,0.0,0.0,13,0.00,,---,0.00,VWS V15.00,2017-10-19 00:49:00,
2017-10-18 17:54:00,70.0,16.9,29.92,North,360,2.0,3.0,13,0.00,,---,0.00,VWS V15.00,2017-10-19 00:54:00,
2017-10-18 17:59:00,69.5,16.5,29.92,North,360,2.0,4.0,13,0.00,,---,0.00,VWS V15.00,2017-10-19 00:59:00,
2017-10-18 18:04:00,69.1,16.2,29.92,North,360,0.0,2.0,13,0.00,,---,0.00,VWS V15.00,2017-10-19 01:04:00,
2017-10-18 18:09:00,68.5,15.8,29.92,North,360,0.0,1.0,13,0.00,,---,0.00,VWS V15.00,2017-10-19 01:09:00,
2017-10-18 18:14:00,67.8,15.2,29.92,North,360,4.0,5.0,13,0.00,,---,0.00,VWS V15.00,2017-10-19 01:14:00,
2017-10-18 18:19:00,67.2,16.4,29.92,North,360,0.0,3.0,14,0.00,,---,0.00,VWS V15.00,2017-10-19 01:19:00,
2017-10-18 18:24:00,66.6,17.5,29.93,North,360,1.0,4.0,15,0.00,,---,0.00,VWS V15.00,2017-10-19 01:24:00,
2017-10-18 18:29:00,66.2,17.2,29.93,North,360,0.0,1.0,15,0.00,,---,0.00,VWS V15.00,2017-10-19 01:29:00,
2017-10-18 18:34:00,65.7,16.8,29.93,North,360,2.0,4.0,15,0.00,,---,0.00,VWS V15.00,2017-10-19 01:34:00,
2017-10-18 18:39:00,65.2,19.3,29.93,North,360,0.0,2.0,17,0.00,,---,0.00,VWS V15.00,2017-10-19 01:39:00,
2017-10-18 18:44:00,64.8,17.6,29.93,North,360,0.0,2.0,16,0.00,,---,0.00,VWS V15.00,2017-10-19 01:44:00,
2017-10-18 18:49:00,64.3,18.6,29.93,North,360,2.0,4.0,17,0.00,,---,0.00,VWS V15.00,2017-10-19 01:49:00,
2017-10-18 18:54:00,63.6,18.0,29.93,North,360,2.0,2.0,17,0.00,,---,0.00,VWS V15.00,2017-10-19 01:54:00,
2017-10-18 18:59:00,63.1,18.9,29.93,North,360,1.0,2.0,18,0.00,,---,0.00,VWS V15.00,2017-10-19 01:59:00,
2017-10-18 19:04:00,62.7,18.6,29.94,North,360,0.0,3.0,18,0.00,,---,0.00,VWS V15.00,2017-10-19 02:04:00,
2017-10-18 19:09:00,62.3,18.3,29.94,North,360,3.0,4.0,18,0.00,,---,0.00,VWS V15.00,2017-10-19 02:09:00,
2017-10-18 19:14:00,61.9,19.2,29.94,North,360,0.0,4.0,19,0.00,,---,0.00,VWS V15.00,2017-10-19 02:14:00,
2017-10-18 19:19:00,61.5,18.9,29.94,North,360,0.0,1.0,19,0.00,,---,0.00,VWS V15.00,2017-10-19 02:19:00,
2017-10-18 19:24:00,61.3,18.7,29.94,North,360,0.0,3.0,19,0.00,,---,0.00,VWS V15.00,2017-10-19 02:24:00,
2017-10-18 19:29:00,61.1,18.5,29.94,North,360,6.0,7.0,19,0.00,,---,0.00,VWS V15.00,2017-10-19 02:29:00,
2017-10-18 19:34:00,61.0,19.7,29.94,North,360,2.0,3.0,20,0.00,,---,0.00,VWS V15.00,2017-10-19 02:34:00,
2017-10-18 19:39:00,60.9,18.4,29.94,North,360,4.0,14.0,19,0.00,,---,0.00,VWS V15.00,2017-10-19 02:39:00,
2017-10-18 19:44:00,61.6,20.2,29.93,North,360,5.0,6.0,20,0.00,,---,0.00,VWS V15.00,2017-10-19 02:44:00,
2017-10-18 19:49:00,61.9,19.2,29.94,North,360,4.0,7.0,19,0.00,,---,0.00,VWS V15.00,2017-10-19 02:49:00,
2017-10-18 19:54:00,62.1,19.4,29.94,North,360,3.0,12.0,19,0.00,,---,0.00,VWS V15.00,2017-10-19 02:54:00,
2017-10-18 19:59:00,62.7,19.9,29.94,North,360,4.0,6.0,19,0.00,,---,0.00,VWS V15.00,2017-10-19 02:59:00,
2017-10-18 20:04:00,62.8,20.0,29.94,North,360,2.0,6.0,19,0.00,,---,0.00,VWS V15.00,2017-10-19 03:04:00,
2017-10-18 20:09:00,63.1,20.2,29.94,North,360,6.0,7.0,19,0.00,,---,0.00,VWS V15.00,2017-10-19 03:09:00,
2017-10-18 20:15:00,62.9,20.0,29.94,North,360,0.0,4.0,19,0.00,,---,0.00,VWS V15.00,2017-10-19 03:15:00,
2017-10-18 20:20:00,62.4,19.6,28.91,North,360,1.0,7.0,19,0.00,,---,0.00,VWS V15.00,2017-10-19 03:20:00,
2017-10-18 20:21:00,62.3,19.5,29.94,North,360,1.0,5.0,19,0.00,,---,0.00,VWS V15.00,2017-10-19 03:21:00,
2017-10-18 20:25:00,61.8,19.1,29.94,North,360,1.0,5.0,19,0.00,,---,0.00,VWS V15.00,2017-10-19 03:25:00,
2017-10-18 20:26:00,61.6,19.0,29.94,North,360,0.0,3.0,19,0.00,,---,0.00,VWS V15.00,2017-10-19 03:26:00,
2017-10-18 20:28:00,61.3,18.7,28.91,North,360,8.0,8.0,19,0.00,,---,0.00,VWS V15.00,2017-10-19 03:28:00,
2017-10-18 20:33:00,60.8,19.5,29.94,North,360,3.0,5.0,20,0.00,,---,0.00,VWS V15.00,2017-10-19 03:33:00,
2017-10-18 20:38:00,60.4,19.2,28.91,North,360,3.0,5.0,20,0.00,,---,0.00,VWS V15.00,2017-10-19 03:38:00,
2017-10-18 20:43:00,60.0,20.0,29.94,North,360,0.0,2.0,21,0.00,,---,0.00,VWS V15.00,2017-10-19 03:43:00,
2017-10-18 20:48:00,59.6,19.6,29.94,North,360,5.0,7.0,21,0.00,,---,0.00,VWS V15.00,2017-10-19 03:48:00,
2017-10-18 20:53:00,59.4,20.6,29.94,North,360,5.0,5.0,22,0.00,,---,0.00,VWS V15.00,2017-10-19 03:53:00,
2017-10-18 20:58:00,59.2,20.4,29.94,North,360,2.0,5.0,22,0.00,,---,0.00,VWS V15.00,2017-10-19 03:58:00,
2017-10-18 21:03:00,59.0,21.3,29.94,North,360,2.0,6.0,23,0.00,,---,0.00,VWS V15.00,2017-10-19 04:03:00,
2017-10-18 21:04:00,58.9,21.2,29.94,North,360,0.0,6.0,23,0.00,,---,0.00,VWS V15.00,2017-10-19 04:04:00,
2017-10-18 21:14:00,58.5,20.9,29.93,North,360,2.0,5.0,23,0.00,,---,0.00,VWS V15.00,2017-10-19 04:14:00,
2017-10-18 21:19:00,58.3,20.7,29.93,North,360,0.0,4.0,23,0.00,,---,0.00,VWS V15.00,2017-10-19 04:19:00,
2017-10-18 21:24:00,58.0,20.4,29.93,North,360,0.0,3.0,23,0.00,,---,0.00,VWS V15.00,2017-10-19 04:24:00,
2017-10-18 21:29:00,57.8,20.3,29.93,North,360,1.0,3.0,23,0.00,,---,0.00,VWS V15.00,2017-10-19 04:29:00,
2017-10-18 21:34:00,57.6,21.1,29.93,North,360,1.0,2.0,24,0.00,,---,0.00,VWS V15.00,2017-10-19 04:34:00,
2017-10-18 21:39:00,57.4,21.9,29.93,North,360,1.0,2.0,25,0.00,,---,0.00,VWS V15.00,2017-10-19 04:39:00,
2017-10-18 21:44:00,57.2,21.7,29.94,North,360,1.0,1.0,25,0.00,,---,0.00,VWS V15.00,2017-10-19 04:44:00,
2017-10-18 21:49:00,57.0,20.6,29.94,North,360,3.0,3.0,24,0.00,,---,0.00,VWS V15.00,2017-10-19 04:49:00,
2017-10-18 21:54:00,56.7,20.3,29.93,North,360,3.0,5.0,24,0.00,,---,0.00,VWS V15.00,2017-10-19 04:54:00,
2017-10-18 21:59:00,56.3,21.0,29.93,North,360,3.0,3.0,25,0.00,,---,0.00,VWS V15.00,2017-10-19 04:59:00,
2017-10-18 22:04:00,56.0,21.6,29.93,North,360,2.0,3.0,26,0.00,,---,0.00,VWS V15.00,2017-10-19 05:04:00,
2017-10-18 22:09:00,55.8,22.3,29.93,North,360,0.0,2.0,27,0.00,,---,0.00,VWS V15.00,2017-10-19 05:09:00,
2017-10-18 22:14:00,55.7,23.1,29.93,North,360,0.0,2.0,28,0.00,,---,0.00,VWS V15.00,2017-10-19 05:14:00,
2017-10-18 22:19:00,55.6,23.0,29.93,North,360,0.0,0.0,28,0.00,,---,0.00,VWS V15.00,2017-10-19 05:19:00,
2017-10-18 22:24:00,55.5,23.0,29.93,North,360,0.0,1.0,28,0.00,,---,0.00,VWS V15.00,2017-10-19 05:24:00,
2017-10-18 22:29:00,55.4,23.7,29.93,North,360,9.0,12.0,29,0.00,,---,0.00,VWS V15.00,2017-10-19 05:29:00,
2017-10-18 22:34:00,55.5,24.6,29.93,North,360,13.0,13.0,30,0.00,,---,0.00,VWS V15.00,2017-10-19 05:34:00,
2017-10-18 22:39:00,56.9,25.0,29.93,North,360,5.0,11.0,29,0.00,,---,0.00,VWS V15.00,2017-10-19 05:39:00,
2017-10-18 22:44:00,58.2,26.1,29.93,North,360,7.0,9.0,29,0.00,,---,0.00,VWS V15.00,2017-10-19 05:44:00,
2017-10-18 22:49:00,58.9,25.9,29.93,North,360,4.0,10.0,28,0.00,,---,0.00,VWS V15.00,2017-10-19 05:49:00,
2017-10-18 22:54:00,59.2,26.1,29.92,North,360,5.0,10.0,28,0.00,,---,0.00,VWS V15.00,2017-10-19 05:54:00,
2017-10-18 22:59:00,59.1,26.0,29.93,North,360,2.0,5.0,28,0.00,,---,0.00,VWS V15.00,2017-10-19 05:59:00,
2017-10-18 23:04:00,58.9,25.9,29.92,North,360,1.0,8.0,28,0.00,,---,0.00,VWS V15.00,2017-10-19 06:04:00,
2017-10-18 23:09:00,59.0,26.0,29.92,North,360,4.0,8.0,28,0.00,,---,0.00,VWS V15.00,2017-10-19 06:09:00,
2017-10-18 23:14:00,58.9,25.9,29.92,North,360,2.0,2.0,28,0.00,,---,0.00,VWS V15.00,2017-10-19 06:14:00,